Location: PACMO
(41.3967°N, 90.3760°W)
Time: 12:29:21
(UTC-05:00)

Amateur Radio Satellites - All Passes

Search period start: 25 October 2014 11:59
Search period end: 26 October 2014 11:59
Location: PACMO, 41.3967°N, 90.3760°W

Satellite Date Start Highest point End Downlink Frequencies (MHz)
Time Altitude Azimuth
HO-68 25 Oct 12:06:30 12:11:21 20° 305° (NW) 12:16:12 435.675 MHz FM
Oscar 16 25 Oct 12:21:35 12:24:39 16° 61° (ENE) 12:27:42 437.025 USB, Beacon 2401.1428
FUNcube-1 25 Oct 12:27:08 12:30:21 21° 293° (WNW) 12:33:30 145.950 - 145.970 MHz USB
Uribyol 2 25 Oct 12:44:03 12:45:34 11° 57° (ENE) 12:47:04 436.500 FM
ITAMSAT 1 25 Oct 12:49:48 12:51:42 12° 58° (ENE) 12:53:37 435.822 SSB
ISS 25 Oct 12:56:09 12:59:27 71° 142° (SE) 13:02:47 145.800 FM
Sapphire 25 Oct 13:12:17 13:17:44 74° 59° (ENE) 13:23:09 437.095 MHz 1200 baud AX-25 AFSK
Oscar 19 25 Oct 13:12:42 13:17:35 44° 70° (ENE) 13:22:27 437.125 CW, 437.150 USB
Gurwin Techsat 1B 25 Oct 13:14:18 13:15:18 11° 57° (ENE) 13:16:18 435.225 FM
JAS-1B 25 Oct 13:30:33 13:36:20 56° 71° (ENE) 13:41:52 435.800 - 435.900 CW/SSB
AO-27 25 Oct 13:32:33 13:37:00 30° 66° (ENE) 13:41:30 436.795 MHz FM
SO-50 25 Oct 13:33:22 13:37:50 63° 306° (NW) 13:42:27 436.795 FM
PCSat 25 Oct 13:34:49 13:40:14 68° 244° (WSW) 13:45:35 145.825 MHz
AO-Echo 25 Oct 13:48:25 13:53:07 49° 71° (ENE) 13:58:00 ?
KITSAT 1 25 Oct 13:50:42 13:58:17 43° 312° (NW) 14:05:54 435.175 FM
Oscar 16 25 Oct 13:58:17 14:03:26 68° 258° (WSW) 14:08:35 437.025 USB, Beacon 2401.1428
Uribyol 2 25 Oct 14:18:57 14:24:10 82° 75° (ENE) 14:29:26 436.500 FM
ITAMSAT 1 25 Oct 14:25:10 14:30:23 87° 75° (ENE) 14:35:39 435.822 SSB
ISS 25 Oct 14:33:42 14:36:25 23° 340° (NNW) 14:39:09 145.800 FM
Saudisat 1A 25 Oct 14:39:59 14:40:51 11° 34° (NE) 14:41:42 436.775 MHz
Gurwin Techsat 1B 25 Oct 14:49:03 14:54:20 76° 74° (ENE) 14:59:40 435.225 FM
UOSAT-12 25 Oct 14:53:07 14:57:45 80° 121° (ESE) 15:02:29 437.025 FM, 437.400 FM
Oscar 19 25 Oct 14:53:09 14:57:06 22° 266° (W) 15:01:04 437.125 CW, 437.150 USB
Sapphire 25 Oct 14:57:29 15:00:29 15° 256° (WSW) 15:03:29 437.095 MHz 1200 baud AX-25 AFSK
TMSAT-1 25 Oct 14:59:50 15:05:06 71° 74° (ENE) 15:10:24 436.925 FM
AO-27 25 Oct 15:11:40 15:16:24 35° 263° (W) 15:21:10 436.795 MHz FM
SO-50 25 Oct 15:17:44 15:19:22 12° 326° (NNW) 15:21:00 436.795 FM
AO-7 25 Oct 15:19:05 15:26:36 41° 61° (ENE) 15:34:09 29.400 - 29.500 MHz
JAS-1B 25 Oct 15:23:29 15:27:26 18° 267° (W) 15:31:17 435.800 - 435.900 CW/SSB
AO-Echo 25 Oct 15:28:45 15:32:11 19° 268° (W) 15:35:43 ?
Uosat F 25 Oct 15:34:58 15:38:53 23° 64° (ENE) 15:42:49 435.120 FM
KITSAT 1 25 Oct 15:51:59 15:56:13 15° 338° (NNW) 16:00:28 435.175 FM
Uribyol 2 25 Oct 16:02:22 16:04:15 12° 271° (W) 16:06:09 436.500 FM
ITAMSAT 1 25 Oct 16:09:14 16:10:32 11° 272° (W) 16:11:50 435.822 SSB
JAS-2 25 Oct 16:10:26 16:14:23 18° 55° (NE) 16:18:37 435.800 - 435.900 CW/SSB, 435.910 FM
ISS 25 Oct 16:12:08 16:14:01 14° 1° (N) 16:15:55 145.800 FM
Saudisat 1A 25 Oct 16:16:57 16:21:20 60° 54° (NE) 16:25:42 436.775 MHz
Gurwin Techsat 1B 25 Oct 16:32:25 16:34:52 13° 271° (W) 16:37:20 435.225 FM
UOSAT-12 25 Oct 16:35:27 16:38:29 17° 321° (NW) 16:41:34 437.025 FM, 437.400 FM
TMSAT-1 25 Oct 16:42:45 16:45:32 14° 270° (W) 16:48:20 436.925 FM
AO-7 25 Oct 17:11:22 17:19:14 47° 259° (W) 17:27:10 29.400 - 29.500 MHz
Uosat F 25 Oct 17:12:38 17:17:23 42° 261° (W) 17:22:11 435.120 FM
OPAL 25 Oct 17:19:16 17:22:32 17° 94° (E) 17:25:46 ?
AO-40 25 Oct 17:22:38 23:22:54 42° 184° (S) 05:17:41 Beacon 2401.320
ISS 25 Oct 17:48:49 17:51:36 24° 21° (NNE) 17:54:23 145.800 FM
Hamsat 25 Oct 17:51:31 17:55:41 66° 75° (ENE) 17:59:51 145.90 MHz
JAS-2 25 Oct 17:52:28 17:58:24 83° 257° (WSW) 18:05:13 435.800 - 435.900 CW/SSB, 435.910 FM
KITSAT 1 25 Oct 17:53:25 17:56:00 12° 10° (N) 17:58:34 435.175 FM
Saudisat 1A 25 Oct 17:57:59 18:00:25 15° 251° (WSW) 18:02:50 436.775 MHz
SO-67 25 Oct 18:31:17 18:33:46 19° 69° (ENE) 18:36:16 435.3500 MHz FM
OPAL 25 Oct 18:56:54 19:01:44 53° 291° (WNW) 19:06:31 ?
HO-68 25 Oct 19:03:03 19:06:07 13° 50° (NE) 19:09:11 435.675 MHz FM
STRAND 1 25 Oct 19:04:18 19:08:31 25° 94° (E) 19:12:40 ?
ISS 25 Oct 19:25:13 19:28:32 64° 219° (SW) 19:31:50 145.800 FM
Hamsat 25 Oct 19:31:49 19:32:03 10° 271° (W) 19:32:18 145.90 MHz
JAS-2 25 Oct 19:42:40 19:44:44 12° 277° (W) 19:46:52 435.800 - 435.900 CW/SSB, 435.910 FM
KITSAT 1 25 Oct 19:48:07 19:54:49 27° 39° (NE) 20:01:29 435.175 FM
SO-67 25 Oct 20:03:49 20:06:36 23° 265° (W) 20:09:24 435.3500 MHz FM
RS-15 25 Oct 20:09:43 20:13:00 12° 95° (E) 20:16:16 29.354 - 29.394 USB, Beacon 29.352 USB
SO-50 25 Oct 20:25:06 20:28:33 19° 41° (NE) 20:32:01 436.795 FM
STRAND 1 25 Oct 20:43:01 20:47:48 40° 291° (WNW) 20:52:34 ?
HO-68 25 Oct 20:45:24 20:52:28 65° 69° (ENE) 20:59:34 435.675 MHz FM
ZACube-1 25 Oct 21:05:01 21:06:23 11° 61° (ENE) 21:07:44 437.345 MHz
UKube-1 25 Oct 21:05:40 21:09:22 28° 68° (ENE) 21:13:04 145.840 MHz, 145.915 MHz
KITSAT 1 25 Oct 21:43:04 21:51:11 84° 241° (WSW) 21:59:14 435.175 FM
UOSAT-12 25 Oct 21:44:20 21:46:27 13° 35° (NE) 21:48:34 437.025 FM, 437.400 FM
Oscar 11 25 Oct 21:45:37 21:49:54 65° 75° (ENE) 21:54:11 145.825 FM, Beacon 2401.500 USB
FUNcube-1 25 Oct 21:46:32 21:50:29 29° 69° (ENE) 21:54:23 145.950 - 145.970 MHz USB
SO-50 25 Oct 22:04:46 22:09:36 72° 240° (WSW) 22:14:28 436.795 FM
RS-15 25 Oct 22:12:11 22:22:58 65° 115° (ESE) 22:33:41 29.354 - 29.394 USB, Beacon 29.352 USB
HO-68 25 Oct 22:35:09 22:40:39 24° 267° (W) 22:46:13 435.675 MHz FM
ZACube-1 25 Oct 22:37:32 22:42:08 80° 258° (WSW) 22:46:41 437.345 MHz
UKube-1 25 Oct 22:41:48 22:45:29 27° 264° (W) 22:49:12 145.840 MHz, 145.915 MHz
MaSat-1 25 Oct 23:13:09 23:16:45 29° 110° (ESE) 23:20:05 437.345 MHz
UOSAT-12 25 Oct 23:22:46 23:27:30 69° 55° (NE) 23:32:07 437.025 FM, 437.400 FM
FUNcube-1 25 Oct 23:22:54 23:26:48 27° 265° (W) 23:30:40 145.950 - 145.970 MHz USB
Oscar 11 25 Oct 23:25:22 23:26:30 11° 270° (W) 23:27:37 145.825 FM, Beacon 2401.500 USB
KITSAT 1 25 Oct 23:40:49 23:45:21 16° 260° (W) 23:49:52 435.175 FM
RS-15 26 Oct 00:25:44 00:35:54 42° 319° (NW) 00:46:10 29.354 - 29.394 USB, Beacon 29.352 USB
Oscar 10/S400 26 Oct 00:28:14 01:32:09 27° 234° (SW) 04:58:03 145.825 - 145.975 CW/USB, Beacon 145.810 USB
MaSat-1 26 Oct 00:49:08 00:52:20 23° 303° (WNW) 00:55:19 437.345 MHz
UOSAT-12 26 Oct 01:04:41 01:07:02 14° 252° (WSW) 01:09:22 437.025 FM, 437.400 FM
JAS-1B 26 Oct 01:13:57 01:18:12 16° 92° (E) 01:22:49 435.800 - 435.900 CW/SSB
Oscar 19 26 Oct 01:25:33 01:28:29 15° 91° (E) 01:31:25 437.125 CW, 437.150 USB
AO-Echo 26 Oct 01:56:30 01:59:57 17° 91° (E) 02:03:22 ?
Oscar 16 26 Oct 02:10:03 02:14:55 42° 98° (E) 02:19:45 437.025 USB, Beacon 2401.1428
Uribyol 2 26 Oct 02:32:10 02:36:40 29° 96° (E) 02:41:06 436.500 FM
PCSat 26 Oct 02:36:01 02:38:58 15° 104° (ESE) 02:41:56 145.825 MHz
ITAMSAT 1 26 Oct 02:38:27 02:43:03 31° 96° (E) 02:47:38 435.822 SSB
RS-15 26 Oct 02:44:38 02:52:23 21° 353° (N) 03:00:14 29.354 - 29.394 USB, Beacon 29.352 USB
JAS-1B 26 Oct 03:02:29 03:09:15 87° 285° (WNW) 03:17:23 435.800 - 435.900 CW/SSB
Oscar 19 26 Oct 03:03:11 03:08:15 63° 287° (WNW) 03:13:17 437.125 CW, 437.150 USB
Gurwin Techsat 1B 26 Oct 03:05:39 03:10:18 30° 96° (E) 03:14:54 435.225 FM
TMSAT-1 26 Oct 03:16:08 03:20:39 28° 95° (E) 03:25:08 436.925 FM
AO-27 26 Oct 03:24:00 03:29:16 84° 104° (ESE) 03:34:29 436.795 MHz FM
AO-Echo 26 Oct 03:33:50 03:39:05 61° 287° (WNW) 03:44:18 ?
Oscar 16 26 Oct 03:49:58 03:54:01 24° 295° (WNW) 03:58:03 437.025 USB, Beacon 2401.1428
Sapphire 26 Oct 03:53:57 03:59:18 68° 116° (ESE) 04:04:42 437.095 MHz 1200 baud AX-25 AFSK
Uribyol 2 26 Oct 04:11:27 04:16:09 35° 292° (WNW) 04:20:49 436.500 FM
PCSat 26 Oct 04:16:18 04:21:42 74° 301° (WNW) 04:27:09 145.825 MHz
ITAMSAT 1 26 Oct 04:17:52 04:22:31 33° 293° (WNW) 04:27:07 435.822 SSB
OPAL 26 Oct 04:33:38 04:38:13 34° 66° (ENE) 04:42:47 ?
Gurwin Techsat 1B 26 Oct 04:45:28 04:50:15 35° 292° (WNW) 04:55:00 435.225 FM
JAS-1B 26 Oct 04:55:14 04:59:13 17° 301° (WNW) 05:03:34 435.800 - 435.900 CW/SSB
TMSAT-1 26 Oct 04:55:46 05:00:37 37° 292° (WNW) 05:05:26 436.925 FM
RS-15 26 Oct 05:00:35 05:09:52 29° 29° (NNE) 05:19:22 29.354 - 29.394 USB, Beacon 29.352 USB
JAS-2 26 Oct 05:02:34 05:07:41 18° 87° (E) 05:12:43 435.800 - 435.900 CW/SSB, 435.910 FM
AO-27 26 Oct 05:05:35 05:08:03 14° 301° (WNW) 05:10:30 436.795 MHz FM
AO-7 26 Oct 05:12:10 05:20:24 61° 104° (ESE) 05:28:37 29.400 - 29.500 MHz
Uosat F 26 Oct 05:19:55 05:24:55 58° 101° (E) 05:29:52 435.120 FM
Sapphire 26 Oct 05:39:11 05:43:14 21° 315° (NW) 05:47:18 437.095 MHz 1200 baud AX-25 AFSK
Hamsat 26 Oct 05:39:14 05:40:37 11° 90° (E) 05:42:01 145.90 MHz
PCSat 26 Oct 06:03:12 06:06:05 14° 321° (NW) 06:08:58 145.825 MHz
OPAL 26 Oct 06:12:37 06:17:05 30° 262° (W) 06:21:32 ?
STRAND 1 26 Oct 06:20:11 06:24:50 36° 68° (ENE) 06:29:32 ?
Saudisat 1A 26 Oct 06:25:19 06:27:45 15° 109° (ESE) 06:30:11 436.775 MHz
JAS-2 26 Oct 06:45:39 06:53:31 90° 310° (NW) 07:01:19 435.800 - 435.900 CW/SSB, 435.910 FM
Uosat F 26 Oct 06:59:54 07:03:13 18° 298° (WNW) 07:06:33 435.120 FM
AO-7 26 Oct 07:05:37 07:12:42 33° 303° (WNW) 07:19:48 29.400 - 29.500 MHz
Hamsat 26 Oct 07:12:48 07:16:56 59° 286° (WNW) 07:21:05 145.90 MHz
RS-15 26 Oct 07:13:04 07:24:18 79° 56° (NE) 07:36:00 29.354 - 29.394 USB, Beacon 29.352 USB
SO-67 26 Oct 07:26:42 07:29:25 21° 95° (E) 07:32:07 435.3500 MHz FM
PANSAT 26 Oct 07:59:06 08:00:14 11° 174° (S) 08:01:22 not established
STRAND 1 26 Oct 07:59:45 08:04:04 27° 265° (W) 08:08:25 ?
Saudisat 1A 26 Oct 08:02:30 08:06:49 59° 306° (NW) 08:11:11 436.775 MHz
JAS-2 26 Oct 08:32:08 08:37:32 21° 303° (WNW) 08:42:59 435.800 - 435.900 CW/SSB, 435.910 FM
MaSat-1 26 Oct 08:58:35 09:01:05 41° 61° (ENE) 09:03:23 437.345 MHz
SO-67 26 Oct 08:59:40 09:02:17 21° 290° (WNW) 09:04:54 435.3500 MHz FM
RS-15 26 Oct 09:26:36 09:35:35 29° 256° (WSW) 09:44:53 29.354 - 29.394 USB, Beacon 29.352 USB
Oscar 11 26 Oct 09:35:20 09:36:52 12° 90° (E) 09:38:24 145.825 FM, Beacon 2401.500 USB
PANSAT 26 Oct 09:38:39 09:39:35 11° 187° (S) 09:40:30 not established
Saudisat 1A 26 Oct 09:46:40 09:47:20 10° 326° (NW) 09:48:00 436.775 MHz
HO-68 26 Oct 10:00:26 10:07:38 68° 103° (ESE) 10:14:46 435.675 MHz FM
KITSAT 1 26 Oct 10:21:53 10:24:48 12° 98° (E) 10:27:42 435.175 FM
ZACube-1 26 Oct 10:27:52 10:30:51 19° 93° (E) 10:33:48 437.345 MHz
UKube-1 26 Oct 10:29:05 10:33:20 49° 100° (E) 10:37:33 145.840 MHz, 145.915 MHz
Oscar 10/S400 26 Oct 10:55:18 11:11:20 17° 153° (SSE) 11:22:24 145.825 - 145.975 CW/USB, Beacon 145.810 USB
Sapphire 26 Oct 11:00:54 11:02:33 11° 35° (NE) 11:04:13 437.095 MHz 1200 baud AX-25 AFSK
Oscar 11 26 Oct 11:09:10 11:13:26 60° 286° (WNW) 11:17:40 145.825 FM, Beacon 2401.500 USB
FUNcube-1 26 Oct 11:11:19 11:15:30 57° 100° (E) 11:19:35 145.950 - 145.970 MHz USB
PCSat 26 Oct 11:22:03 11:25:27 17° 41° (NE) 11:28:50 145.825 MHz
